Parsons, KS

8:26 AM CST on November 20, 2019 (GMT -0600)
Tri-City

Weather History for KPPF - October, 2019

Change the Weather History Date:

Saturday, October 12, 2019

  Actual Average Record
Temperature  
Mean Temperature 48 °F -  
Max Temperature 68 °F 73 °F 89 °F (1956)
Min Temperature 30 °F 48 °F 28 °F (1987)
Degree Days  
Heating Degree Days 17    
Moisture  
Dew Point 33 °F    
Average Humidity 64    
Maximum Humidity 96    
Minimum Humidity 26    
Precipitation  
Precipitation 0.00 in - - ()
Sea Level Pressure  
Sea Level Pressure 30.13 in    
Wind  
Wind Speed 4 mph ()    
Max Wind Speed 15 mph    
Max Gust Speed 26 mph    
Visibility 10.0 miles    
Events      
Averages and records for this station are not official NWS values.
T = Trace of Precipitation, MM = Missing Value Source: Averaged Metar Reports

Daily Weather History Graph

Daily Weather History Graph

Search for Another Location

Airport or City:

Astronomy

Oct. 12, 2019 Rise Set
Actual Time 7:27 AM CDT 6:49 PM CDT
Civil Twilight 7:00 AM CDT 7:15 PM CDT
Nautical Twilight 6:30 AM CDT 7:45 PM CDT
Astronomical Twilight 6:00 AM CDT 8:15 PM CDT
Moon 6:43 PM CDT (10/12) 6:08 AM CDT (10/12)
Length of Visible Light 12h 14m
Length of Day
11h 22m
Waxing Gibbous, 99% of the Moon is Illuminated
Oct 12
Waxing Gibbous
Oct 13
Full
Oct 21
Last Quarter
Oct 27
New
Nov 4
First Quarter

Hourly Weather History & Observations

Time (CDT) Temp. Windchill Dew Point Humidity Pressure Visibility Wind Dir Wind Speed Gust Speed Precip Events Conditions
12:52 AM 33.1 °F - 30.9 °F 92% 30.28 in 10.0 mi Calm Calm - N/A   Clear
1:52 AM 32.0 °F - 30.9 °F 96% 30.26 in 10.0 mi Calm Calm - N/A   Clear
2:52 AM 30.9 °F - 30.0 °F 96% 30.26 in 10.0 mi Calm Calm - N/A   Clear
3:52 AM 32.0 °F - 30.9 °F 96% 30.25 in 10.0 mi Calm Calm - N/A   Clear
4:52 AM 33.1 °F - 30.9 °F 92% 30.24 in 10.0 mi Calm Calm - N/A   Clear
5:52 AM 33.1 °F - 30.9 °F 92% 30.23 in 10.0 mi Calm Calm - N/A   Clear
6:52 AM 32.0 °F 28.7 °F 30.0 °F 92% 30.24 in 10.0 mi South 3.5 mph - N/A   Clear
7:52 AM 30.9 °F - 30.0 °F 96% 30.23 in 10.0 mi Calm Calm - N/A   Clear
8:52 AM 37.0 °F 31.6 °F 34.0 °F 89% 30.22 in 10.0 mi South 6.9 mph - N/A   Clear
10:52 AM 53.1 °F - 35.1 °F 50% 30.20 in 10.0 mi SSW 9.2 mph - N/A   Clear
11:52 AM 59.0 °F - 35.1 °F 41% 30.17 in 10.0 mi SW 12.7 mph 18.4 mph N/A   Clear
12:52 PM 63.0 °F - 33.1 °F 33% 30.14 in 10.0 mi SSW 15.0 mph 26.5 mph N/A   Clear
1:52 PM 64.9 °F - 32.0 °F 29% 30.10 in 10.0 mi SW 12.7 mph 24.2 mph N/A   Clear
2:52 PM 66.9 °F - 30.9 °F 26% 30.06 in 10.0 mi SW 13.8 mph 23.0 mph N/A   Clear
3:52 PM 66.9 °F - 30.9 °F 26% 30.02 in 10.0 mi SSW 11.5 mph 24.2 mph N/A   Clear
4:52 PM 66.0 °F - 30.9 °F 27% 30.01 in 10.0 mi SSW 13.8 mph 21.9 mph N/A   Clear
5:52 PM 63.0 °F - 33.1 °F 33% 30.01 in 10.0 mi SSW 8.1 mph - N/A   Clear
6:52 PM 55.0 °F - 35.1 °F 47% 30.01 in 10.0 mi SSW 5.8 mph - N/A   Clear
7:52 PM 48.0 °F - 39.9 °F 74% 30.02 in 10.0 mi South 3.5 mph - N/A   Clear
8:52 PM 52.0 °F - 37.0 °F 57% 30.01 in 10.0 mi South 8.1 mph - N/A   Clear
9:52 PM 50.0 °F - 37.0 °F 61% 30.01 in 10.0 mi South 6.9 mph - N/A   Clear
10:52 PM 48.0 °F - 37.0 °F 66% 30.01 in 10.0 mi South 6.9 mph - N/A   Clear
11:52 PM 46.9 °F - 37.9 °F 71% 29.99 in 10.0 mi South 5.8 mph - N/A   Clear